Shirley, NY

5:45 PM EDT on May 22, 2018 (GMT -0400)
Brookhaven

Weather History for KHWV - January, 2013

Change the Weather History Date:

Sunday, January 20, 2013

  Actual Average (KISP) Record (KISP)
Temperature  
Mean Temperature 44 °F -  
Max Temperature 55 °F 34 °F 56 °F (2013)
Min Temperature 32 °F 20 °F 2 °F (1994)
Degree Days  
Heating Degree Days 21    
Moisture  
Dew Point 25 °F    
Average Humidity 48    
Maximum Humidity 68    
Minimum Humidity 21    
Precipitation  
Precipitation 0.00 in - - ()
Sea Level Pressure  
Sea Level Pressure 29.83 in    
Wind  
Wind Speed 14 mph (WSW)    
Max Wind Speed 22 mph    
Max Gust Speed 32 mph    
Visibility 10 miles    
Events      
Averages and records for this station are not official NWS values.
T = Trace of Precipitation, MM = Missing Value Source: NWS Daily Summary

Daily Weather History Graph

Daily Weather History Graph

Search for Another Location

Airport or City:

Astronomy

Jan. 20, 2013 Rise Set
Actual Time 7:10 AM EST 4:54 PM EST
Civil Twilight 6:41 AM EST 5:24 PM EST
Nautical Twilight 6:07 AM EST 5:57 PM EST
Astronomical Twilight 5:35 AM EST 6:30 PM EST
Moon 11:54 AM EST (1/20) 1:40 AM EST (1/20)
Length of Visible Light 10h 43m
Length of Day
9h 43m
Waxing Gibbous, 66% of the Moon is Illuminated
Jan 20
Waxing Gibbous
Jan 26
Full
Feb 3
Last Quarter
Feb 10
New
Feb 17
First Quarter

Hourly Weather History & Observations

Time (EST) Temp. Windchill Dew Point Humidity Pressure Visibility Wind Dir Wind Speed Gust Speed Precip Events Conditions
12:56 AM 45.0 °F 38.2 °F 35.1 °F 68% 29.93 in 10.0 mi SSW 15.0 mph 25.3 mph N/A   Clear
1:56 AM 45.0 °F 38.9 °F 34.0 °F 65% 29.89 in 10.0 mi SSW 12.7 mph 20.7 mph N/A   Clear
2:56 AM 45.0 °F 38.5 °F 34.0 °F 65% 29.87 in 10.0 mi SSW 13.8 mph 23.0 mph N/A   Clear
3:56 AM 44.1 °F 37.7 °F 34.0 °F 68% 29.85 in 10.0 mi SW 12.7 mph 19.6 mph N/A   Clear
4:56 AM 43.0 °F 36.8 °F 32.0 °F 65% 29.83 in 10.0 mi SW 11.5 mph - N/A   Clear
5:56 AM 43.0 °F 36.4 °F 32.0 °F 65% 29.79 in 10.0 mi SSW 12.7 mph 19.6 mph N/A   Clear
6:56 AM 43.0 °F 37.2 °F 32.0 °F 65% 29.78 in 10.0 mi SW 10.4 mph - N/A   Clear
7:56 AM 44.1 °F 38.1 °F 33.1 °F 65% 29.77 in 10.0 mi SSW 11.5 mph 23.0 mph N/A   Clear
8:56 AM 46.0 °F 39.6 °F 32.0 °F 58% 29.77 in 10.0 mi SW 15.0 mph 20.7 mph N/A   Clear
9:56 AM 48.0 °F - 33.1 °F 56% 29.78 in 10.0 mi SSW 12.7 mph 19.6 mph N/A   Clear
10:56 AM 50.0 °F - 33.1 °F 52% 29.76 in 10.0 mi SW 12.7 mph 20.7 mph N/A   Clear
11:56 AM 51.1 °F - 30.9 °F 46% 29.72 in 10.0 mi SW 16.1 mph 26.5 mph N/A   Clear
12:56 PM 52.0 °F - 34.0 °F 50% 29.69 in 10.0 mi SW 17.3 mph 24.2 mph N/A   Clear
1:56 PM 55.9 °F - 27.0 °F 33% 29.68 in 10.0 mi West 19.6 mph 28.8 mph N/A   Scattered Clouds
2:56 PM 54.0 °F - 21.9 °F 29% 29.71 in 10.0 mi West 21.9 mph 32.2 mph N/A   Clear
3:56 PM 52.0 °F - 16.0 °F 24% 29.74 in 10.0 mi West 20.7 mph 32.2 mph N/A   Clear
4:56 PM 50.0 °F - 10.9 °F 21% 29.78 in 10.0 mi West 20.7 mph 32.2 mph N/A   Clear
5:56 PM 46.9 °F - 12.9 °F 25% 29.83 in 10.0 mi West 13.8 mph 24.2 mph N/A   Clear
6:56 PM 43.0 °F 35.1 °F 18.0 °F 37% 29.88 in 10.0 mi NW 17.3 mph 21.9 mph N/A   Clear
7:56 PM 39.9 °F 32.1 °F 15.1 °F 36% 29.92 in 10.0 mi WNW 13.8 mph 23.0 mph N/A   Clear
8:56 PM 37.0 °F 30.4 °F 14.0 °F 39% 29.96 in 10.0 mi WNW 9.2 mph - N/A   Clear
9:56 PM 35.1 °F 27.9 °F 12.0 °F 39% 29.98 in 10.0 mi WNW 9.2 mph - N/A   Clear
10:56 PM 33.1 °F 24.4 °F 12.9 °F 43% 30.00 in 10.0 mi NW 11.5 mph - N/A   Clear
11:56 PM 32.0 °F 24.2 °F 12.0 °F 44% 30.03 in 10.0 mi WNW 9.2 mph - N/A   Clear